Torna al catalogo

NAVSTAR 73

USA 260

AttivoNavigazioneHEO
NORAD 40534·PAYLOAD·🇺🇸 United States

Lanciato Mar 25, 2015 da Cape Canaveral Space Force Station

Loading…

Prossimi Passaggi (prossime 24 ore)

TLE

AggiornatoSource: CelesTrak SupGP

Epoca: Sep 16, 2026, 16:44 UTC

1 40534C 15013A   26259.69756944  .00000000  00000+0  00000+0 0  2597
2 40534  53.1573 200.3956 0113087  41.1395 246.1700  2.00570646    11

Traccia NAVSTAR 73 in tempo reale con AllMySat

Download on the App Store